Location: Jihlava
(49.4000°N, 15.5830°E)
Time: 16:09:21
(UTC+02:00)

ISS - Visible Passes

Search period start: 26 June 2022 00:00
Search period end: 06 July 2022 00:00
Orbit: 415 x 420 km, 51.6° (Epoch: 26 June)

Date Brightness Start Highest point End Pass type
(mag) Time Alt. Az. Time Alt. Az. Time Alt. Az.
28 Jun -2.1 04:09:39 10° SSW 04:12:23 23° SE 04:15:09 10° E visible
29 Jun -1.6 03:23:05 11° S 03:24:57 16° SE 03:27:07 10° E visible
30 Jun -1.3 02:37:20 10° SE 02:37:46 10° SE 02:38:26 10° ESE visible
30 Jun -3.3 04:10:39 10° SW 04:13:56 49° SSE 04:17:14 10° ENE visible
01 Jul -2.8 03:24:41 17° SSW 03:26:48 34° SSE 03:29:55 10° E visible
02 Jul -2.4 02:39:13 22° SSE 02:39:53 24° SE 02:42:41 10° E visible
03 Jul -1.6 01:53:54 16° ESE 01:53:54 16° ESE 01:55:27 10° E visible
03 Jul -3.7 03:26:53 15° WSW 03:29:37 71° SSE 03:33:01 10° ENE visible
04 Jul -3.5 02:41:42 30° SSW 02:43:01 51° SSE 02:46:21 10° ENE visible
05 Jul -3.0 01:56:40 36° SSE 01:56:40 36° SSE 01:59:48 10° E visible
05 Jul -3.5 03:30:01 10° W 03:33:24 71° NNW 03:36:50 10° ENE visible
